Misión y Visión

La misión es proporcionar información fiable a la navegación aérea, contribuyendo a la seguridad, regularidad y eficiencia de la Navegación Aérea Internacional

La visión es contribuir sustancialmente al desarrollo de conocimientos y a la utilización de la meteorología aeronáutica a nivel nacional e internacional, mediante la innovación y la coparticipación con sectores sociales y productivos de la sociedad.

 
  Inicio
  Metar
  Taf
  Wintemp
  SIGMET
  Avisos
  Pronósticos
  Carpeta Meteorologica
  Imágenes Satelitales
  Climatología Aeronáutica
   
  ¿Quienes Somos?
  Contacto
  Eventos
Taf

 

IMÁGENES DEL AEROPUERTO
(EN CONSTRUCCION)

 

PRONOSTICO DE AERÓDROMO
TAF / PROYECCION CLIMATICA
MES DE JULIO

 

AEROPUERTO ENRIQUE MALEK:

TAF MPSM 291100Z 2912/3018 00000KT 9999 FEW018 SCT090 PROB30 TEMPO 2919/2923 16006KT 6000 TSRA SCT015CB BKN090 TEMPO 2923/3003 34005KT=


TAF:

TAF MPDA 290530Z 2906/2918 00000KT 9999 SCT018 BECMG 2914/2918 18006KT SCT018 SCT090=

 

AEROPUERTO PANAMA PACIFICO:

hola



TAF:



AEROPUERTO MARCOS A. GELABERT:

TAF MPMG 290530Z 2906/2918 00000KT 9999 SCT018 SCT090 TEMPO 2906/2909 7000 -TSRA SCT015CB BKN090 BECMG 2909/2912 NSW=



TAF:



AEROPUERTO INTL. DE TOCUMEN:

TAF MPPA 291100Z 2912/3018 00000KT 9999 FEW018 SCT090 PROB30 TEMPO 2918/2922 19006KT 6000 TSRA SCT015CB BKN090 TEMPO 2922/3002 34005KT=



TAF:

TAF MPTO 291100Z 2912/3018 00000KT 9999 FEW018 SCT090 PROB40 TEMPO 2918/2922 18005KT 6000 TSRA SCT015CB BKN090 TEMPO 2922/3002 30004KT=


 
 



























  Noticias AAC
  Directorio
  Contáctenos
  Historia
  Quejas y Sugerencias
  Etica y Transparencia

  Gestión SSP/SMS
  Seguridad Aérea
  Navegación Aérea
  Transporte Aéreo

  Tramites
  Áeronaves de Alquiler

  Meteorología
  I.S.F.P.A
  Notam
  Peligro Aviario
  AVSEC
  UPIA
  Permisos
 




DECLARACIÓN DE PRIVACIDAD